Buckhannon, WV

10:49 AM EST on February 19, 2017 (GMT -0500)
Buckhannon

Weather History for KW22 - February, 2013

Change the Weather History Date:

Sunday, February 10, 2013

  Actual Average (KCKB) Record (KCKB)
Temperature  
Mean Temperature 39 °F -  
Max Temperature 57 °F 36 °F 68 °F (1965)
Min Temperature 21 °F 15 °F -8 °F (1934)
Degree Days  
Heating Degree Days 26    
Moisture  
Dew Point 21 °F    
Average Humidity 57    
Maximum Humidity 93    
Minimum Humidity 24    
Precipitation  
Precipitation 0.00 in - - ()
Sea Level Pressure  
Sea Level Pressure 30.16 in    
Wind  
Wind Speed 4 mph (SSE)    
Max Wind Speed 16 mph    
Max Gust Speed 28 mph    
Visibility 10 miles    
Events Rain    
Averages and records for this station are not official NWS values.
T = Trace of Precipitation, MM = Missing Value Source: NWS Daily Summary

Daily Weather History Graph

Daily Weather History Graph

Search for Another Location

Airport or City:

Trip Planner

Search our weather history database for the weather conditions in past years. The results will help you decide how hot, cold, wet, or windy it might be!

Date:

Astronomy

Feb. 10, 2013 Rise Set
Actual Time 7:18 AM EST 5:53 PM EST
Civil Twilight 6:50 AM EST 6:20 PM EST
Nautical Twilight 6:19 AM EST 6:52 PM EST
Astronomical Twilight 5:48 AM EST 7:23 PM EST
Moon 7:07 AM EST (2/10) 6:41 PM EST (2/10)
Length of Visible Light 11h 30m
Length of Day
10h 34m
New Moon, 0% of the Moon is Illuminated
Feb 10
New Moon
Feb 17
First Quarter
Feb 25
Full
Mar 4
Last Quarter
Mar 11
New

Hourly Weather History & Observations

Time (EST) Temp. Windchill Dew Point Humidity Pressure Visibility Wind Dir Wind Speed Gust Speed Precip Events Conditions
12:15 AM 23.0 °F 17.0 °F 19.4 °F 86% 30.30 in 10.0 mi ENE 4.6 mph - N/A   Clear
12:35 AM 24.8 °F 17.9 °F 19.4 °F 80% 30.30 in 10.0 mi East 5.8 mph - N/A   Clear
12:55 AM 23.0 °F 17.0 °F 19.4 °F 86% 30.29 in 10.0 mi East 4.6 mph - N/A   Clear
1:15 AM 23.0 °F 17.0 °F 19.4 °F 86% 30.28 in 10.0 mi East 4.6 mph - N/A   Clear
1:35 AM 24.8 °F 20.5 °F 17.6 °F 74% 30.28 in 10.0 mi East 3.5 mph - N/A   Clear
1:55 AM 23.0 °F - 19.4 °F 86% 30.28 in 10.0 mi Calm Calm - N/A   Clear
2:15 AM 23.0 °F - 19.4 °F 86% 30.28 in 10.0 mi Calm Calm - N/A   Clear
2:35 AM 23.0 °F 15.8 °F 17.6 °F 80% 30.27 in 10.0 mi ENE 5.8 mph - N/A   Clear
2:55 AM 23.0 °F 17.0 °F 17.6 °F 80% 30.25 in 10.0 mi East 4.6 mph - N/A   Clear
3:15 AM 23.0 °F 18.4 °F 17.6 °F 80% 30.25 in 10.0 mi ENE 3.5 mph - N/A   Clear
3:35 AM 23.0 °F - 17.6 °F 80% 30.24 in 10.0 mi Calm Calm - N/A   Clear
3:55 AM 23.0 °F - 17.6 °F 80% 30.24 in 10.0 mi Calm Calm - N/A   Clear
4:15 AM 23.0 °F - 17.6 °F 80% 30.24 in 10.0 mi Calm Calm - N/A   Clear
4:35 AM 23.0 °F - 17.6 °F 80% 30.24 in 10.0 mi Calm Calm - N/A   Clear
4:55 AM 23.0 °F - 17.6 °F 80% 30.24 in 10.0 mi Calm Calm - N/A   Clear
5:15 AM 21.2 °F - 17.6 °F 86% 30.24 in 10.0 mi Calm Calm - N/A   Clear
5:35 AM 24.8 °F 20.5 °F 14.0 °F 64% 30.24 in 10.0 mi East 3.5 mph - N/A   Clear
5:55 AM 23.0 °F - 17.6 °F 80% 30.24 in 10.0 mi Calm Calm - N/A   Clear
6:15 AM 23.0 °F - 15.8 °F 74% 30.25 in 10.0 mi Calm Calm - N/A   Clear
6:35 AM 23.0 °F - 17.6 °F 80% 30.25 in 10.0 mi Calm Calm - N/A   Clear
6:55 AM 23.0 °F - 15.8 °F 74% 30.25 in 10.0 mi Calm Calm - N/A   Clear
7:15 AM 23.0 °F 15.8 °F 17.6 °F 80% 30.25 in 10.0 mi East 5.8 mph - N/A   Unknown
7:35 AM 24.8 °F - 17.6 °F 74% 30.25 in 10.0 mi Calm Calm - N/A   Clear
7:55 AM 26.6 °F - 15.8 °F 64% 30.25 in 10.0 mi Calm Calm - N/A   Clear
8:15 AM 26.6 °F 22.6 °F 17.6 °F 69% 30.25 in 10.0 mi ESE 3.5 mph - N/A   Clear
8:35 AM 26.6 °F - 19.4 °F 74% 30.25 in 10.0 mi Calm Calm - N/A   Clear
8:55 AM 28.4 °F 23.3 °F 21.2 °F 74% 30.25 in 10.0 mi East 4.6 mph - N/A   Clear
9:15 AM 30.2 °F - 21.2 °F 69% 30.25 in 10.0 mi Calm Calm - N/A   Clear
9:35 AM 30.2 °F - 23.0 °F 75% 30.25 in 10.0 mi Calm Calm - N/A   Clear
9:55 AM 32.0 °F - 26.6 °F 80% 30.25 in 10.0 mi Calm Calm - N/A   Clear
10:15 AM 32.0 °F - 26.6 °F 80% 30.24 in 10.0 mi Calm Calm - N/A   Clear
10:35 AM 33.8 °F - 21.2 °F 60% 30.22 in 10.0 mi Calm Calm - N/A   Clear
10:55 AM 37.4 °F - 21.2 °F 52% 30.21 in 10.0 mi Calm Calm - N/A   Clear
11:15 AM 44.6 °F - 28.4 °F 53% 30.21 in 10.0 mi Calm Calm - N/A   Clear
11:35 AM 46.4 °F - 26.6 °F 46% 30.20 in 10.0 mi Calm Calm - N/A   Clear
11:55 AM 48.2 °F - 24.8 °F 40% 30.19 in 10.0 mi Calm Calm - N/A   Clear
12:15 PM 50.0 °F - 24.8 °F 37% 30.18 in 10.0 mi Calm Calm - N/A   Clear
12:35 PM 51.8 °F - 26.6 °F 38% 30.17 in 10.0 mi Calm Calm - N/A   Clear
12:55 PM 53.6 °F - 24.8 °F 33% 30.15 in 10.0 mi Calm Calm - N/A   Clear
1:15 PM 53.6 °F - 26.6 °F 35% 30.14 in 10.0 mi Calm Calm - N/A   Clear
1:35 PM 55.4 °F - 23.0 °F 29% 30.12 in 10.0 mi South 4.6 mph - N/A   Clear
1:55 PM 57.2 °F - 24.8 °F 29% 30.11 in 10.0 mi Calm Calm - N/A   Clear
2:15 PM 57.2 °F - 23.0 °F 27% 30.11 in 10.0 mi South 4.6 mph - N/A   Clear
2:35 PM 57.2 °F - 23.0 °F 27% 30.10 in 10.0 mi South 6.9 mph - N/A   Clear
2:55 PM 57.2 °F - 23.0 °F 27% 30.09 in 10.0 mi South 3.5 mph - N/A   Clear
3:15 PM 57.2 °F - 24.8 °F 29% 30.07 in 10.0 mi SSE 5.8 mph - N/A   Clear
3:55 PM 55.4 °F - 23.0 °F 29% 30.07 in 10.0 mi SE 8.1 mph - N/A   Clear
4:15 PM 53.6 °F - 21.2 °F 28% 30.05 in 10.0 mi ESE 6.9 mph - N/A   Clear
4:35 PM 53.6 °F - 19.4 °F 26% 30.05 in 10.0 mi SSE 10.4 mph - N/A   Clear
4:55 PM 53.6 °F - 17.6 °F 24% 30.05 in 10.0 mi SSE 9.2 mph - N/A   Partly Cloudy
5:15 PM 51.8 °F - 19.4 °F 28% 30.06 in 10.0 mi South 11.5 mph - N/A   Clear
5:35 PM 51.8 °F - 19.4 °F 28% 30.06 in 10.0 mi South 10.4 mph - N/A   Clear
5:55 PM 50.0 °F - 19.4 °F 30% 30.06 in 10.0 mi South 10.4 mph - N/A   Scattered Clouds
6:15 PM 48.2 °F - 19.4 °F 32% 30.07 in 10.0 mi South 8.1 mph - N/A   Partly Cloudy
6:35 PM 48.2 °F - 19.4 °F 32% 30.07 in 10.0 mi South 4.6 mph - N/A   Clear
6:55 PM 48.2 °F - 19.4 °F 32% 30.07 in 10.0 mi South 4.6 mph - N/A   Clear
7:15 PM 46.4 °F 43.5 °F 19.4 °F 34% 30.07 in 10.0 mi South 5.8 mph - N/A   Clear
7:35 PM 48.2 °F - 19.4 °F 32% 30.07 in 10.0 mi South 6.9 mph - N/A   Clear
7:55 PM 46.4 °F 41.9 °F 19.4 °F 34% 30.06 in 10.0 mi South 9.2 mph - N/A   Clear
8:15 PM 48.2 °F - 17.6 °F 30% 30.06 in 10.0 mi South 10.4 mph - N/A   Partly Cloudy
8:35 PM 48.2 °F - 17.6 °F 30% 30.05 in 10.0 mi South 9.2 mph 17.3 mph N/A   Scattered Clouds
8:55 PM 48.2 °F - 17.6 °F 30% 30.05 in 10.0 mi South 13.8 mph 19.6 mph N/A   Mostly Cloudy
9:15 PM 48.2 °F - 19.4 °F 32% 30.06 in 10.0 mi South 16.1 mph 27.6 mph N/A   Partly Cloudy
9:35 PM 46.4 °F 39.8 °F 23.0 °F 40% 30.05 in 10.0 mi South 16.1 mph 23.0 mph N/A   Partly Cloudy
9:55 PM 44.6 °F 37.8 °F 28.4 °F 53% 30.03 in 10.0 mi South 15.0 mph 25.3 mph N/A Rain Light Rain
10:15 PM 42.8 °F 37.5 °F 30.2 °F 61% 30.03 in 10.0 mi South 9.2 mph - N/A   Mostly Cloudy
10:35 PM 42.8 °F 39.3 °F 32.0 °F 66% 30.02 in 6.0 mi SSE 5.8 mph - N/A   Haze
11:15 PM 41.0 °F 38.0 °F 33.8 °F 76% 29.99 in 6.0 mi SE 4.6 mph - N/A   Overcast
11:35 PM 39.2 °F 35.0 °F 37.4 °F 93% 29.97 in 5.0 mi ESE 5.8 mph - N/A   Overcast
11:55 PM 39.2 °F 35.0 °F 37.4 °F 93% 29.95 in 10.0 mi SE 5.8 mph - N/A   Overcast